FW6626 Weather Reports


time (UTC)temp
C
wind
direction
speed
KPH
gust
KPH
rain 1hr
cm
rain 24hr
cm
rain mn
cm
humidity
%
barometer
mb
20260903011602 22 252 6.4 17.7 0.00 0.00 0.00 71 1014.8
20260903010105 23 221 6.4 14.5 0.00 0.00 0.00 69 1014.9
20260903004558 23 231 6.4 16.1 0.00 0.00 0.00 66 1015.0
20260903003104 22 232 8.0 17.7 0.00 0.00 0.00 68 1015.0
20260903001605 23 223 6.4 16.1 0.00 0.00 0.00 69 1015.0
20260903000059 23 260 4.8 17.7 0.00 0.00 0.00 68 1014.9
20260902234603 23 232 4.8 16.1 0.00 0.00 0.00 69 1015.1
20260902233052 23 242 8.0 17.7 0.00 0.00 0.00 68 1015.2
20260902231559 23 360 9.7 20.9 0.00 0.00 0.00 69 1015.3
20260902230116 23 256 6.4 17.7 0.00 0.00 0.00 69 1015.5
20260902224604 23 360 11.3 19.3 0.00 0.00 0.00 68 1015.6
20260902223058 23 360 11.3 19.3 0.00 0.00 0.00 67 1015.7
20260902221608 23 236 9.7 19.3 0.00 0.00 0.00 67 1015.9
20260902220104 24 248 8.0 20.9 0.00 0.00 0.00 68 1015.8
20260902214600 24 259 4.8 22.5 0.00 0.00 0.00 67 1015.9
20260902213055 23 223 9.7 20.9 0.00 0.00 0.00 69 1016.0
20260902211553 23 229 9.7 20.9 0.00 0.00 0.00 69 1016.0
20260902210121 23 247 11.3 24.1 0.00 0.00 0.00 69 1016.1
20260902204601 23 201 9.7 20.9 0.00 0.00 0.00 69 1016.1
20260902203107 23 259 8.0 20.9 0.00 0.00 0.00 69 1016.2
20260902201614 23 245 8.0 19.3 0.00 0.00 0.00 69 1016.3
20260902200107 23 256 9.7 19.3 0.00 0.00 0.00 69 1016.4
20260902194600 23 259 11.3 22.5 0.00 0.00 0.00 71 1016.5
20260902193100 23 217 8.0 22.5 0.00 0.00 0.00 69 1016.6
20260902191601 23 261 11.3 20.9 0.00 0.00 0.00 69 1016.8
20260902190125 24 360 8.0 19.3 0.00 0.00 0.00 69 1016.6
20260902184608 23 220 6.4 16.1 0.00 0.00 0.00 68 1016.7
20260902183110 24 221 6.4 19.3 0.00 0.00 0.00 67 1016.8
20260902181608 24 360 6.4 16.1 0.00 0.00 0.00 69 1017.1
20260902174600 23 233 8.0 16.1 0.00 0.00 0.00 69 1017.1
20260902173056 24 190 3.2 16.1 0.00 0.00 0.00 67 1017.1
20260902171620 25 161 6.4 14.5 0.00 0.00 0.00 66 1016.9
20260902170059 25 182 1.6 9.7 0.00 0.00 0.00 67 1016.9
20260902164601 24 179 3.2 14.5 0.00 0.00 0.00 67 1017.0
20260902163103 25 236 4.8 12.9 0.00 0.00 0.00 64 1017.0
20260902161603 23 196 4.8 11.3 0.00 0.00 0.00 67 1016.8
20260902160105 24 115 1.6 11.3 0.00 0.00 0.00 67 1016.8
20260902154604 22 60 1.6 12.9 0.00 0.00 0.00 73 1016.8
20260902153101 23 67 3.2 8.0 0.00 0.00 0.00 70 1016.7
20260902151603 22 78 3.2 9.7 0.00 0.00 0.00 73 1016.8
20260902150106 21 42 1.6 6.4 0.00 0.00 0.00 79 1016.7
20260902144602 19 36 1.6 4.8 0.00 0.00 0.00 83 1016.6
20260902143055 18 0 1.6 4.8 0.00 0.00 0.00 85 1016.7
20260902141601 18 0 0.0 4.8 0.00 0.00 0.00 85 1016.6
20260902140100 17 34 1.6 4.8 0.00 0.00 0.00 86 1016.3
20260902134615 17 35 0.0 4.8 0.00 0.00 0.00 86 1016.3
20260902133056 17 36 1.6 4.8 0.00 0.00 0.00 86 1016.0
20260902131601 17 34 1.6 4.8 0.00 0.00 0.00 86 1016.0
20260902124554 17 38 3.2 4.8 0.00 0.00 0.00 86 1015.9
20260902123103 17 40 1.6 4.8 0.00 0.00 0.00 87 1015.8
20260902121559 17 40 3.2 6.4 0.00 0.00 0.00 86 1015.8
20260902120058 17 47 3.2 8.0 0.00 0.00 0.00 86 1015.9
20260902114600 17 48 3.2 8.0 0.00 0.00 0.00 86 1015.9
20260902113109 17 46 3.2 8.0 0.00 0.00 0.00 86 1016.0
20260902111602 17 46 3.2 6.4 0.00 0.00 0.00 85 1016.0
20260902104602 18 52 3.2 6.4 0.00 0.00 0.00 85 1016.0
20260902103100 18 49 4.8 9.7 0.00 0.00 0.00 85 1016.1
20260902101557 18 42 3.2 8.0 0.00 0.00 0.00 84 1016.2
20260902100056 18 32 3.2 6.4 0.00 0.00 0.00 84 1016.3
20260902094558 18 25 3.2 6.4 0.00 0.00 0.00 84 1016.3
20260902093057 18 20 0.0 4.8 0.00 0.00 0.00 84 1016.4
20260902091605 18 20 3.2 4.8 0.00 0.00 0.00 84 1016.5
20260902090059 18 350 3.2 4.8 0.00 0.00 0.00 84 1016.5
20260902084604 18 0 0.0 0.0 0.00 0.00 0.00 84 1016.7
20260902083103 18 0 0.0 0.0 0.00 0.00 0.00 83 1016.6
20260902081603 19 0 0.0 0.0 0.00 0.00 0.00 84 1016.5
20260902080059 19 0 0.0 0.0 0.00 0.00 0.00 84 1016.5
20260902074610 18 0 0.0 0.0 0.00 0.00 0.00 84 1016.5
20260902073101 18 0 0.0 0.0 0.00 0.00 0.00 84 1016.5
20260902071601 18 0 0.0 0.0 0.00 0.00 0.00 84 1016.4
20260902070057 18 0 0.0 0.0 0.00 0.00 0.00 83 1016.3
20260902064557 19 0 0.0 0.0 0.00 0.00 0.00 83 1016.3
20260902063111 19 0 0.0 0.0 0.00 0.00 0.00 83 1016.2
20260902060108 19 0 0.0 0.0 0.00 0.00 0.00 83 1016.1
20260902054606 19 0 0.0 0.0 0.00 0.00 0.00 82 1016.0
20260902053057 20 0 0.0 0.0 0.00 0.00 0.00 82 1016.1
20260902051559 20 0 0.0 0.0 0.00 0.00 0.00 82 1016.2
20260902050055 20 0 0.0 0.0 0.00 0.00 0.00 82 1016.2
20260902044607 20 0 0.0 0.0 0.00 0.00 0.00 82 1016.2
20260902043111 20 0 0.0 1.6 0.00 0.00 0.00 82 1016.1
20260902041605 20 0 0.0 0.0 0.00 0.00 0.00 82 1015.9
20260902040057 20 0 0.0 1.6 0.00 0.00 0.00 82 1015.5
20260902034614 20 0 0.0 3.2 0.00 0.00 0.00 82 1015.1
20260902033101 20 284 0.0 3.2 0.00 0.00 0.00 82 1015.0
20260902031605 20 0 1.6 4.8 0.00 0.00 0.00 81 1014.7
20260902030100 21 0 1.6 11.3 0.00 0.00 0.00 81 1014.5
20260902024600 21 0 0.0 9.7 0.00 0.00 0.00 81 1014.4
20260902023054 21 257 1.6 9.7 0.00 0.00 0.00 80 1014.4
20260902021608 21 269 3.2 14.5 0.00 0.00 0.00 78 1014.3
20260902014557 22 227 3.2 11.3 0.00 0.00 0.00 75 1014.5
20260902013059 22 311 4.8 12.9 0.00 0.00 0.00 76 1014.4